When you browse on this site, cookies collect data to enhance your experience and personalize the content and advertising you see.
Visit our Privacy Policy to learn more. By continuing to use the site, you agree to this use of cookies and data.
  • în România
  • Lista ţărilor
  • Pe 7 zile
  • Temperatura apei
  • Meteo pe hartă
  • Widget-uri
  • user-avatar
    Intrare

    Meteo pe oră la Perth

    Astăzi, 18 Noiembrie, Luni

    Timp Temperatura Precipitaţii Vânt Presiune Umiditate
    00:00 +21°C° 0 mm 3 m/s 761 mmHg 75%
    01:00 +21°C° 0 mm 3 m/s 760 mmHg 76%
    02:00 +21°C° 0 mm 3 m/s 760 mmHg 78%
    03:00 +21°C° 0 mm 3 m/s 760 mmHg 76%
    04:00 +21°C° 0 mm 3 m/s 760 mmHg 75%
    05:00 +21°C° 0 mm 3 m/s 761 mmHg 74%
    06:00 +22°C° 0 mm 3 m/s 761 mmHg 65%
    07:00 +25°C° 0 mm 3 m/s 761 mmHg 56%
    08:00 +26°C° 0 mm 3 m/s 761 mmHg 47%
    09:00 +28°C° 0 mm 3 m/s 760 mmHg 43%
    10:00 +31°C° 0 mm 2 m/s 760 mmHg 38%
    11:00 +34°C° 0 mm 2 m/s 760 mmHg 33%
    12:00 +34°C° 0 mm 4 m/s 759 mmHg 34%
    13:00 +34°C° 0 mm 5 m/s 758 mmHg 36%
    14:00 +34°C° 0 mm 6 m/s 757 mmHg 37%
    15:00 +32°C° 0 mm 6 m/s 757 mmHg 39%
    16:00 +30°C° 0 mm 6 m/s 757 mmHg 42%
    17:00 +29°C° 0 mm 6 m/s 756 mmHg 45%
    18:00 +27°C° 0 mm 5 m/s 756 mmHg 51%
    19:00 +26°C° 0 mm 5 m/s 757 mmHg 57%
    20:00 +25°C° 0 mm 4 m/s 757 mmHg 63%
    21:00 +24°C° 0 mm 3 m/s 757 mmHg 63%
    22:00 +24°C° 0 mm 3 m/s 757 mmHg 63%
    23:00 +24°C° 0 mm 3 m/s 757 mmHg 63%

    Mâine, 19 Noiembrie, Marţi

    Timp Temperatura Precipitaţii Vânt Presiune Umiditate
    00:00 +22°C° 0 mm 3 m/s 756 mmHg 62%
    01:00 +22°C° 0 mm 3 m/s 756 mmHg 61%
    02:00 +21°C° 0 mm 3 m/s 755 mmHg 60%
    03:00 +20°C° 0 mm 3 m/s 755 mmHg 61%
    04:00 +20°C° 0 mm 3 m/s 755 mmHg 62%
    05:00 +19°C° 0 mm 2 m/s 755 mmHg 63%
    06:00 +20°C° 0 mm 3 m/s 755 mmHg 59%
    07:00 +21°C° 0 mm 3 m/s 755 mmHg 55%
    08:00 +24°C° 0 mm 3 m/s 755 mmHg 52%
    09:00 +23°C° 0 mm 4 m/s 755 mmHg 50%
    10:00 +25°C° 0 mm 5 m/s 755 mmHg 49%
    11:00 +26°C° 0 mm 6 m/s 755 mmHg 47%
    12:00 +26°C° 0 mm 6 m/s 755 mmHg 46%
    13:00 +26°C° 0 mm 7 m/s 754 mmHg 46%
    14:00 +26°C° 0 mm 7 m/s 754 mmHg 45%
    15:00 +24°C° 0 mm 7 m/s 754 mmHg 46%
    16:00 +23°C° 0 mm 6 m/s 754 mmHg 47%
    17:00 +22°C° 0 mm 6 m/s 755 mmHg 48%
    18:00 +21°C° 0 mm 6 m/s 755 mmHg 54%
    19:00 +19°C° 0 mm 5 m/s 755 mmHg 59%
    20:00 +17°C° 0 mm 5 m/s 756 mmHg 65%
    21:00 +17°C° 0 mm 5 m/s 756 mmHg 68%
    22:00 +16°C° 0 mm 5 m/s 756 mmHg 70%
    23:00 +17°C° 0 mm 4 m/s 757 mmHg 73%

    Poimâine, 20 Noiembrie, Miercuri

    Timp Temperatura Precipitaţii Vânt Presiune Umiditate
    00:00 +16°C° 0 mm 5 m/s 756 mmHg 71%
    01:00 +16°C° 0 mm 5 m/s 756 mmHg 69%
    02:00 +17°C° 0 mm 6 m/s 756 mmHg 67%
    03:00 +17°C° 0.1 mm 6 m/s 756 mmHg 67%
    04:00 +17°C° 0.1 mm 6 m/s 757 mmHg 66%
    05:00 +17°C° 0.1 mm 6 m/s 757 mmHg 66%
    06:00 +17°C° 0.1 mm 6 m/s 757 mmHg 62%
    07:00 +17°C° 0.1 mm 7 m/s 758 mmHg 58%
    08:00 +18°C° 0.1 mm 8 m/s 759 mmHg 54%
    09:00 +18°C° 0 mm 8 m/s 759 mmHg 50%
    10:00 +20°C° 0 mm 7 m/s 759 mmHg 46%
    11:00 +21°C° 0 mm 7 m/s 759 mmHg 42%
    12:00 +21°C° 0 mm 7 m/s 759 mmHg 41%
    13:00 +21°C° 0 mm 7 m/s 759 mmHg 41%
    14:00 +20°C° 0 mm 7 m/s 759 mmHg 40%
    15:00 +20°C° 0 mm 7 m/s 759 mmHg 43%
    16:00 +18°C° 0 mm 7 m/s 760 mmHg 46%
    17:00 +19°C° 0 mm 6 m/s 760 mmHg 49%
    18:00 +17°C° 0 mm 6 m/s 760 mmHg 54%
    19:00 +16°C° 0 mm 5 m/s 761 mmHg 58%
    20:00 +15°C° 0 mm 5 m/s 761 mmHg 63%
    21:00 +14°C° 0 mm 5 m/s 761 mmHg 61%
    22:00 +14°C° 0 mm 4 m/s 762 mmHg 60%
    23:00 +14°C° 0 mm 4 m/s 762 mmHg 59%

    21 Noiembrie, Joi

    Timp Temperatura Precipitaţii Vânt Presiune Umiditate
    00:00 +13°C° 0 mm 4 m/s 762 mmHg 57%
    01:00 +13°C° 0 mm 3 m/s 762 mmHg 55%
    02:00 +12°C° 0 mm 3 m/s 762 mmHg 53%
    03:00 +12°C° 0 mm 3 m/s 762 mmHg 54%
    04:00 +13°C° 0 mm 2 m/s 762 mmHg 55%
    05:00 +12°C° 0 mm 2 m/s 762 mmHg 56%
    06:00 +14°C° 0 mm 2 m/s 763 mmHg 50%
    07:00 +16°C° 0 mm 2 m/s 763 mmHg 43%
    08:00 +18°C° 0 mm 2 m/s 763 mmHg 37%
    09:00 +20°C° 0 mm 2 m/s 763 mmHg 34%
    10:00 +24°C° 0 mm 2 m/s 763 mmHg 30%
    11:00 +26°C° 0 mm 2 m/s 762 mmHg 26%
    12:00 +26°C° 0 mm 3 m/s 762 mmHg 27%
    13:00 +27°C° 0 mm 4 m/s 761 mmHg 27%
    14:00 +27°C° 0 mm 5 m/s 760 mmHg 28%
    15:00 +26°C° 0 mm 5 m/s 760 mmHg 31%
    16:00 +24°C° 0 mm 6 m/s 760 mmHg 34%
    17:00 +22°C° 0 mm 6 m/s 760 mmHg 36%
    18:00 +21°C° 0 mm 6 m/s 760 mmHg 42%
    19:00 +19°C° 0 mm 5 m/s 760 mmHg 47%
    20:00 +17°C° 0 mm 5 m/s 761 mmHg 52%
    21:00 +16°C° 0 mm 5 m/s 761 mmHg 55%
    22:00 +15°C° 0 mm 4 m/s 761 mmHg 57%
    23:00 +15°C° 0 mm 4 m/s 761 mmHg 60%

    22 Noiembrie, Vineri

    Timp Temperatura Precipitaţii Vânt Presiune Umiditate
    00:00 +14°C° 0 mm 4 m/s 761 mmHg 61%
    01:00 +14°C° 0 mm 4 m/s 761 mmHg 62%
    02:00 +14°C° 0 mm 4 m/s 761 mmHg 64%
    03:00 +14°C° 0 mm 4 m/s 761 mmHg 64%
    04:00 +14°C° 0 mm 3 m/s 761 mmHg 65%
    05:00 +14°C° 0 mm 3 m/s 761 mmHg 66%
    06:00 +16°C° 0 mm 3 m/s 761 mmHg 63%
    07:00 +18°C° 0 mm 3 m/s 762 mmHg 60%
    08:00 +19°C° 0 mm 4 m/s 762 mmHg 57%
    09:00 +21°C° 0 mm 3 m/s 762 mmHg 48%
    10:00 +25°C° 0 mm 3 m/s 761 mmHg 40%
    11:00 +27°C° 0 mm 3 m/s 761 mmHg 32%
    12:00 +28°C° 0 mm 3 m/s 760 mmHg 31%
    13:00 +29°C° 0 mm 4 m/s 760 mmHg 30%
    14:00 +29°C° 0 mm 4 m/s 759 mmHg 28%
    15:00 +28°C° 0 mm 5 m/s 759 mmHg 32%
    16:00 +28°C° 0 mm 6 m/s 759 mmHg 35%
    17:00 +27°C° 0 mm 6 m/s 758 mmHg 38%
    18:00 +26°C° 0 mm 6 m/s 758 mmHg 41%
    19:00 +24°C° 0 mm 6 m/s 759 mmHg 44%
    20:00 +23°C° 0 mm 5 m/s 759 mmHg 47%
    21:00 +23°C° 0 mm 5 m/s 759 mmHg 43%
    22:00 +23°C° 0 mm 4 m/s 759 mmHg 39%
    23:00 +22°C° 0 mm 4 m/s 759 mmHg 35%

    23 Noiembrie, Sâmbătă

    Timp Temperatura Precipitaţii Vânt Presiune Umiditate
    00:00 +22°C° 0 mm 4 m/s 759 mmHg 41%
    01:00 +21°C° 0 mm 5 m/s 760 mmHg 48%
    02:00 +20°C° 0 mm 5 m/s 760 mmHg 54%
    03:00 +20°C° 0 mm 5 m/s 760 mmHg 56%
    04:00 +19°C° 0 mm 5 m/s 759 mmHg 59%
    05:00 +18°C° 0 mm 4 m/s 759 mmHg 61%
    06:00 +19°C° 0 mm 4 m/s 759 mmHg 56%
    07:00 +21°C° 0 mm 4 m/s 759 mmHg 52%
    08:00 +22°C° 0 mm 4 m/s 759 mmHg 47%
    09:00 +25°C° 0 mm 4 m/s 759 mmHg 42%
    10:00 +28°C° 0 mm 4 m/s 758 mmHg 36%
    11:00 +32°C° 0 mm 4 m/s 758 mmHg 30%
    12:00 +32°C° 0 mm 4 m/s 757 mmHg 30%
    13:00 +33°C° 0 mm 5 m/s 756 mmHg 31%
    14:00 +34°C° 0 mm 5 m/s 755 mmHg 31%
    15:00 +32°C° 0 mm 6 m/s 755 mmHg 35%
    16:00 +30°C° 0 mm 7 m/s 755 mmHg 39%
    17:00 +29°C° 0 mm 7 m/s 754 mmHg 43%
    18:00 +27°C° 0 mm 7 m/s 755 mmHg 46%
    19:00 +26°C° 0 mm 6 m/s 756 mmHg 48%
    20:00 +24°C° 0 mm 6 m/s 756 mmHg 51%
    21:00 +23°C° 0 mm 6 m/s 757 mmHg 51%
    22:00 +23°C° 0 mm 5 m/s 757 mmHg 52%
    23:00 +23°C° 0 mm 5 m/s 758 mmHg 52%
    Arată mai mult